#datetime,building,power
2024-03-07T00:00:00,axn,26.68
2024-03-07T00:01:00,axn,26.74
2024-03-07T00:02:00,axn,27.90
2024-03-07T00:03:00,axn,26.83
2024-03-07T00:04:00,axn,27.15
2024-03-07T00:05:00,axn,26.91
2024-03-07T00:06:00,axn,26.60
2024-03-07T00:07:00,axn,26.72
2024-03-07T00:08:00,axn,26.76
2024-03-07T00:09:00,axn,26.65
2024-03-07T00:10:00,axn,26.58
2024-03-07T00:11:00,axn,26.73
2024-03-07T00:12:00,axn,26.54
2024-03-07T00:13:00,axn,26.66
2024-03-07T00:14:00,axn,26.66
2024-03-07T00:15:00,axn,26.39
2024-03-07T00:16:00,axn,26.63
2024-03-07T00:17:00,axn,26.86
2024-03-07T00:18:00,axn,26.45
2024-03-07T00:19:00,axn,26.47
2024-03-07T00:20:00,axn,26.63
2024-03-07T00:21:00,axn,26.70
2024-03-07T00:22:00,axn,26.91
2024-03-07T00:23:00,axn,27.08
2024-03-07T00:24:00,axn,26.97
2024-03-07T00:25:00,axn,26.66
2024-03-07T00:26:00,axn,26.73
2024-03-07T00:27:00,axn,27.18
2024-03-07T00:28:00,axn,26.57
2024-03-07T00:29:00,axn,26.54
2024-03-07T00:30:00,axn,26.59
2024-03-07T00:31:00,axn,26.61
2024-03-07T00:32:00,axn,26.76
2024-03-07T00:33:00,axn,26.30
2024-03-07T00:34:00,axn,26.29
2024-03-07T00:35:00,axn,26.47
2024-03-07T00:36:00,axn,26.67
2024-03-07T00:37:00,axn,26.90
2024-03-07T00:38:00,axn,26.78
2024-03-07T00:39:00,axn,26.99
2024-03-07T00:40:00,axn,27.03
2024-03-07T00:41:00,axn,26.73
2024-03-07T00:42:00,axn,26.71
2024-03-07T00:43:00,axn,26.76
2024-03-07T00:44:00,axn,26.69
2024-03-07T00:45:00,axn,26.71
2024-03-07T00:46:00,axn,26.85
2024-03-07T00:47:00,axn,26.81
2024-03-07T00:48:00,axn,26.56
2024-03-07T00:49:00,axn,26.59
2024-03-07T00:50:00,axn,27.07
2024-03-07T00:51:00,axn,26.57
2024-03-07T00:52:00,axn,26.57
2024-03-07T00:53:00,axn,26.73
2024-03-07T00:54:00,axn,26.65
2024-03-07T00:55:00,axn,27.60
2024-03-07T00:56:00,axn,26.82
2024-03-07T00:57:00,axn,26.90
2024-03-07T00:58:00,axn,26.94
2024-03-07T00:59:00,axn,26.98
2024-03-07T01:00:00,axn,26.99
2024-03-07T01:01:00,axn,27.03
2024-03-07T01:02:00,axn,26.50
2024-03-07T01:03:00,axn,26.58
2024-03-07T01:04:00,axn,26.45
2024-03-07T01:05:00,axn,26.72
2024-03-07T01:06:00,axn,26.56
2024-03-07T01:07:00,axn,26.74
2024-03-07T01:08:00,axn,27.08
2024-03-07T01:09:00,axn,27.51
2024-03-07T01:10:00,axn,27.06
2024-03-07T01:11:00,axn,26.95
2024-03-07T01:12:00,axn,29.85
2024-03-07T01:13:00,axn,29.86
2024-03-07T01:14:00,axn,26.90
2024-03-07T01:15:00,axn,26.94
2024-03-07T01:16:00,axn,26.88
2024-03-07T01:17:00,axn,27.28
2024-03-07T01:18:00,axn,27.04
2024-03-07T01:19:00,axn,26.89
2024-03-07T01:20:00,axn,27.04
2024-03-07T01:21:00,axn,26.95
2024-03-07T01:22:00,axn,26.94
2024-03-07T01:23:00,axn,27.36
2024-03-07T01:24:00,axn,27.04
2024-03-07T01:25:00,axn,27.16
2024-03-07T01:26:00,axn,27.12
2024-03-07T01:27:00,axn,27.22
2024-03-07T01:28:00,axn,38.21
2024-03-07T01:29:00,axn,37.98
2024-03-07T01:30:00,axn,37.47
2024-03-07T01:31:00,axn,37.34
2024-03-07T01:32:00,axn,37.40
2024-03-07T01:33:00,axn,27.15
2024-03-07T01:34:00,axn,27.19
2024-03-07T01:35:00,axn,27.21
2024-03-07T01:36:00,axn,27.08
2024-03-07T01:37:00,axn,27.45
2024-03-07T01:38:00,axn,27.12
2024-03-07T01:39:00,axn,27.07
2024-03-07T01:40:00,axn,27.19
2024-03-07T01:41:00,axn,27.08
2024-03-07T01:42:00,axn,26.91
2024-03-07T01:43:00,axn,26.88
2024-03-07T01:44:00,axn,26.87
2024-03-07T01:45:00,axn,27.03
2024-03-07T01:46:00,axn,26.97
2024-03-07T01:47:00,axn,26.95
2024-03-07T01:48:00,axn,26.73
2024-03-07T01:49:00,axn,27.31
2024-03-07T01:50:00,axn,27.37
2024-03-07T01:51:00,axn,26.82
2024-03-07T01:52:00,axn,27.02
2024-03-07T01:53:00,axn,26.90
2024-03-07T01:54:00,axn,26.63
2024-03-07T01:55:00,axn,26.88
2024-03-07T01:56:00,axn,26.97
2024-03-07T01:57:00,axn,26.81
2024-03-07T01:58:00,axn,27.06
2024-03-07T01:59:00,axn,27.06
2024-03-07T02:00:00,axn,27.22
2024-03-07T02:01:00,axn,27.24
2024-03-07T02:02:00,axn,27.27
2024-03-07T02:03:00,axn,26.92
2024-03-07T02:04:00,axn,26.96
2024-03-07T02:05:00,axn,26.95
2024-03-07T02:06:00,axn,26.81
2024-03-07T02:07:00,axn,26.82
2024-03-07T02:08:00,axn,26.85
2024-03-07T02:09:00,axn,26.82
2024-03-07T02:10:00,axn,27.12
2024-03-07T02:11:00,axn,26.84
2024-03-07T02:12:00,axn,26.84
2024-03-07T02:13:00,axn,27.45
2024-03-07T02:14:00,axn,27.20
2024-03-07T02:15:00,axn,26.82
2024-03-07T02:16:00,axn,26.86
2024-03-07T02:17:00,axn,27.26
2024-03-07T02:18:00,axn,26.79
2024-03-07T02:19:00,axn,26.72
2024-03-07T02:20:00,axn,26.75
2024-03-07T02:21:00,axn,26.75
2024-03-07T02:22:00,axn,26.81
2024-03-07T02:23:00,axn,26.77
2024-03-07T02:24:00,axn,26.61
2024-03-07T02:25:00,axn,26.58
2024-03-07T02:26:00,axn,26.86
2024-03-07T02:27:00,axn,26.57
2024-03-07T02:28:00,axn,26.66
2024-03-07T02:29:00,axn,26.46
2024-03-07T02:30:00,axn,26.32
2024-03-07T02:31:00,axn,26.34
2024-03-07T02:32:00,axn,26.34
2024-03-07T02:33:00,axn,26.22
2024-03-07T02:34:00,axn,26.39
2024-03-07T02:35:00,axn,26.39
2024-03-07T02:36:00,axn,26.34
2024-03-07T02:37:00,axn,26.30
2024-03-07T02:38:00,axn,26.35
2024-03-07T02:39:00,axn,26.40
2024-03-07T02:40:00,axn,26.43
2024-03-07T02:41:00,axn,26.21
2024-03-07T02:42:00,axn,26.23
2024-03-07T02:43:00,axn,26.26
2024-03-07T02:44:00,axn,26.37
2024-03-07T02:45:00,axn,27.09
2024-03-07T02:46:00,axn,26.35
2024-03-07T02:47:00,axn,26.45
2024-03-07T02:48:00,axn,26.65
2024-03-07T02:49:00,axn,26.37
2024-03-07T02:50:00,axn,26.31
2024-03-07T02:51:00,axn,26.31
2024-03-07T02:52:00,axn,26.43
2024-03-07T02:53:00,axn,26.83
2024-03-07T02:54:00,axn,26.53
2024-03-07T02:55:00,axn,26.57
2024-03-07T02:56:00,axn,26.96
2024-03-07T02:57:00,axn,26.56
2024-03-07T02:58:00,axn,26.33
2024-03-07T02:59:00,axn,26.54
2024-03-07T03:00:00,axn,26.63
2024-03-07T03:01:00,axn,26.42
2024-03-07T03:02:00,axn,26.68
2024-03-07T03:03:00,axn,26.48
2024-03-07T03:04:00,axn,26.33
2024-03-07T03:05:00,axn,26.60
2024-03-07T03:06:00,axn,26.25
2024-03-07T03:07:00,axn,26.48
2024-03-07T03:08:00,axn,26.49
2024-03-07T03:09:00,axn,26.63
2024-03-07T03:10:00,axn,26.75
2024-03-07T03:11:00,axn,26.81
2024-03-07T03:12:00,axn,26.77
2024-03-07T03:13:00,axn,26.80
2024-03-07T03:14:00,axn,26.59
2024-03-07T03:15:00,axn,26.71
2024-03-07T03:16:00,axn,26.71
2024-03-07T03:17:00,axn,26.76
2024-03-07T03:18:00,axn,26.48
2024-03-07T03:19:00,axn,26.40
2024-03-07T03:20:00,axn,26.35
2024-03-07T03:21:00,axn,26.23
2024-03-07T03:22:00,axn,26.49
2024-03-07T03:23:00,axn,26.34
2024-03-07T03:24:00,axn,26.41
2024-03-07T03:25:00,axn,26.43
2024-03-07T03:26:00,axn,26.46
2024-03-07T03:27:00,axn,26.64
2024-03-07T03:28:00,axn,26.73
2024-03-07T03:29:00,axn,26.68
2024-03-07T03:30:00,axn,26.71
2024-03-07T03:31:00,axn,26.59
2024-03-07T03:32:00,axn,26.82
2024-03-07T03:33:00,axn,26.76
2024-03-07T03:34:00,axn,26.96
2024-03-07T03:35:00,axn,26.83
2024-03-07T03:36:00,axn,26.73
2024-03-07T03:37:00,axn,26.56
2024-03-07T03:38:00,axn,26.59
2024-03-07T03:39:00,axn,26.46
2024-03-07T03:40:00,axn,26.57
2024-03-07T03:41:00,axn,27.25
2024-03-07T03:42:00,axn,27.00
2024-03-07T03:43:00,axn,26.51
2024-03-07T03:44:00,axn,26.45
2024-03-07T03:45:00,axn,26.48
2024-03-07T03:46:00,axn,26.95
2024-03-07T03:47:00,axn,26.40
2024-03-07T03:48:00,axn,26.47
2024-03-07T03:49:00,axn,26.27
2024-03-07T03:50:00,axn,26.28
2024-03-07T03:51:00,axn,26.35
2024-03-07T03:52:00,axn,26.34
2024-03-07T03:53:00,axn,26.24
2024-03-07T03:54:00,axn,26.37
2024-03-07T03:55:00,axn,26.66
2024-03-07T03:56:00,axn,27.08
2024-03-07T03:57:00,axn,26.67
2024-03-07T03:58:00,axn,26.64
2024-03-07T03:59:00,axn,26.56
2024-03-07T04:00:00,axn,26.59
2024-03-07T04:01:00,axn,26.45
2024-03-07T04:02:00,axn,26.33
2024-03-07T04:03:00,axn,41.20
2024-03-07T04:04:00,axn,41.12
2024-03-07T04:05:00,axn,41.19
2024-03-07T04:06:00,axn,40.87
2024-03-07T04:07:00,axn,40.72
2024-03-07T04:08:00,axn,26.49
2024-03-07T04:09:00,axn,26.65
2024-03-07T04:10:00,axn,26.55
2024-03-07T04:11:00,axn,26.55
2024-03-07T04:12:00,axn,26.61
2024-03-07T04:13:00,axn,26.58
2024-03-07T04:14:00,axn,26.90
2024-03-07T04:15:00,axn,27.42
2024-03-07T04:16:00,axn,27.23
2024-03-07T04:17:00,axn,26.87
2024-03-07T04:18:00,axn,26.84
2024-03-07T04:19:00,axn,26.95
2024-03-07T04:20:00,axn,33.10
2024-03-07T04:21:00,axn,33.10
2024-03-07T04:22:00,axn,33.16
2024-03-07T04:23:00,axn,33.13
2024-03-07T04:24:00,axn,32.72
2024-03-07T04:25:00,axn,26.89
2024-03-07T04:26:00,axn,26.96
2024-03-07T04:27:00,axn,26.91
2024-03-07T04:28:00,axn,26.98
2024-03-07T04:29:00,axn,27.02
2024-03-07T04:30:00,axn,26.77
2024-03-07T04:31:00,axn,26.62
2024-03-07T04:32:00,axn,26.61
2024-03-07T04:33:00,axn,26.87
2024-03-07T04:34:00,axn,27.24
2024-03-07T04:35:00,axn,26.91
2024-03-07T04:36:00,axn,26.57
2024-03-07T04:37:00,axn,26.53
2024-03-07T04:38:00,axn,26.52
2024-03-07T04:39:00,axn,26.62
2024-03-07T04:40:00,axn,26.62
2024-03-07T04:41:00,axn,26.53
2024-03-07T04:42:00,axn,26.59
2024-03-07T04:43:00,axn,26.40
2024-03-07T04:44:00,axn,26.38
2024-03-07T04:45:00,axn,26.48
2024-03-07T04:46:00,axn,26.59
2024-03-07T04:47:00,axn,29.48
2024-03-07T04:48:00,axn,29.42
2024-03-07T04:49:00,axn,29.37
2024-03-07T04:50:00,axn,26.89
2024-03-07T04:51:00,axn,26.60
2024-03-07T04:52:00,axn,26.51
2024-03-07T04:53:00,axn,26.46
2024-03-07T04:54:00,axn,26.43
2024-03-07T04:55:00,axn,26.70
2024-03-07T04:56:00,axn,26.67
2024-03-07T04:57:00,axn,26.75
2024-03-07T04:58:00,axn,27.21
2024-03-07T04:59:00,axn,27.57
2024-03-07T05:00:00,axn,27.49
2024-03-07T05:01:00,axn,30.49
2024-03-07T05:02:00,axn,31.07
2024-03-07T05:03:00,axn,30.82
2024-03-07T05:04:00,axn,33.46
2024-03-07T05:05:00,axn,36.36
2024-03-07T05:06:00,axn,39.71
2024-03-07T05:07:00,axn,39.77
2024-03-07T05:08:00,axn,39.27
2024-03-07T05:09:00,axn,38.40
2024-03-07T05:10:00,axn,38.44
2024-03-07T05:11:00,axn,33.62
2024-03-07T05:12:00,axn,33.52
2024-03-07T05:13:00,axn,33.19
2024-03-07T05:14:00,axn,33.35
2024-03-07T05:15:00,axn,33.25
2024-03-07T05:16:00,axn,33.45
2024-03-07T05:17:00,axn,33.61
2024-03-07T05:18:00,axn,33.76
2024-03-07T05:19:00,axn,33.83
2024-03-07T05:20:00,axn,33.75
2024-03-07T05:21:00,axn,33.49
2024-03-07T05:22:00,axn,33.88
2024-03-07T05:23:00,axn,33.23
2024-03-07T05:24:00,axn,32.75
2024-03-07T05:25:00,axn,33.37
2024-03-07T05:26:00,axn,33.62
2024-03-07T05:27:00,axn,32.72
2024-03-07T05:28:00,axn,37.60
2024-03-07T05:29:00,axn,37.74
2024-03-07T05:30:00,axn,33.45
2024-03-07T05:31:00,axn,34.99
2024-03-07T05:32:00,axn,34.86
2024-03-07T05:33:00,axn,34.16
2024-03-07T05:34:00,axn,34.66
2024-03-07T05:35:00,axn,34.26
2024-03-07T05:36:00,axn,33.76
2024-03-07T05:37:00,axn,33.76
2024-03-07T05:38:00,axn,33.95
2024-03-07T05:39:00,axn,33.98
2024-03-07T05:40:00,axn,34.43
2024-03-07T05:41:00,axn,34.34
2024-03-07T05:42:00,axn,34.39
2024-03-07T05:43:00,axn,34.80
2024-03-07T05:44:00,axn,34.48
2024-03-07T05:45:00,axn,33.79
2024-03-07T05:46:00,axn,34.25
2024-03-07T05:47:00,axn,34.18
2024-03-07T05:48:00,axn,33.62
2024-03-07T05:49:00,axn,33.50
2024-03-07T05:50:00,axn,33.89
2024-03-07T05:51:00,axn,34.01
2024-03-07T05:52:00,axn,34.11
2024-03-07T05:53:00,axn,34.01
2024-03-07T05:54:00,axn,34.36
2024-03-07T05:55:00,axn,34.51
2024-03-07T05:56:00,axn,38.73
2024-03-07T05:57:00,axn,38.14
2024-03-07T05:58:00,axn,33.87
2024-03-07T05:59:00,axn,33.74
2024-03-07T06:00:00,axn,33.39
2024-03-07T06:01:00,axn,33.61
2024-03-07T06:02:00,axn,33.75
2024-03-07T06:03:00,axn,33.63
2024-03-07T06:04:00,axn,34.14
2024-03-07T06:05:00,axn,34.53
2024-03-07T06:06:00,axn,34.23
2024-03-07T06:07:00,axn,34.61
2024-03-07T06:08:00,axn,34.10
2024-03-07T06:09:00,axn,54.20
2024-03-07T06:10:00,axn,34.28
2024-03-07T06:11:00,axn,51.72
2024-03-07T06:12:00,axn,34.43
2024-03-07T06:13:00,axn,34.44
2024-03-07T06:14:00,axn,44.67
2024-03-07T06:15:00,axn,44.37
2024-03-07T06:16:00,axn,44.48
2024-03-07T06:17:00,axn,44.61
2024-03-07T06:18:00,axn,34.58
2024-03-07T06:19:00,axn,34.70
2024-03-07T06:20:00,axn,35.62
2024-03-07T06:21:00,axn,34.80
2024-03-07T06:22:00,axn,34.81
2024-03-07T06:23:00,axn,34.83
2024-03-07T06:24:00,axn,34.89
2024-03-07T06:25:00,axn,34.38
2024-03-07T06:26:00,axn,45.48
2024-03-07T06:27:00,axn,38.78
2024-03-07T06:28:00,axn,34.76
2024-03-07T06:29:00,axn,34.70
2024-03-07T06:30:00,axn,35.05
2024-03-07T06:31:00,axn,34.99
2024-03-07T06:32:00,axn,34.56
2024-03-07T06:33:00,axn,33.92
2024-03-07T06:34:00,axn,34.16
2024-03-07T06:35:00,axn,34.11
2024-03-07T06:36:00,axn,33.57
2024-03-07T06:37:00,axn,33.56
2024-03-07T06:38:00,axn,33.61
2024-03-07T06:39:00,axn,33.91
2024-03-07T06:40:00,axn,33.95
2024-03-07T06:41:00,axn,34.30
2024-03-07T06:42:00,axn,34.04
2024-03-07T06:43:00,axn,34.15
2024-03-07T06:44:00,axn,33.83
2024-03-07T06:45:00,axn,33.06
2024-03-07T06:46:00,axn,33.64
2024-03-07T06:47:00,axn,33.56
2024-03-07T06:48:00,axn,33.16
2024-03-07T06:49:00,axn,47.09
2024-03-07T06:50:00,axn,47.15
2024-03-07T06:51:00,axn,33.14
2024-03-07T06:52:00,axn,47.55
2024-03-07T06:53:00,axn,46.96
2024-03-07T06:54:00,axn,47.25
2024-03-07T06:55:00,axn,33.78
2024-03-07T06:56:00,axn,33.64
2024-03-07T06:57:00,axn,47.82
2024-03-07T06:58:00,axn,37.99
2024-03-07T06:59:00,axn,38.20
2024-03-07T07:00:00,axn,33.61
2024-03-07T07:01:00,axn,33.20
2024-03-07T07:02:00,axn,34.28
2024-03-07T07:03:00,axn,36.74
2024-03-07T07:04:00,axn,36.53
2024-03-07T07:05:00,axn,53.56
2024-03-07T07:06:00,axn,35.35
2024-03-07T07:07:00,axn,35.57
2024-03-07T07:08:00,axn,37.09
2024-03-07T07:09:00,axn,37.28
2024-03-07T07:10:00,axn,37.18
2024-03-07T07:11:00,axn,36.96
2024-03-07T07:12:00,axn,37.75
2024-03-07T07:13:00,axn,38.12
2024-03-07T07:14:00,axn,38.15
2024-03-07T07:15:00,axn,38.39
2024-03-07T07:16:00,axn,38.37
2024-03-07T07:17:00,axn,38.96
2024-03-07T07:18:00,axn,37.54
2024-03-07T07:19:00,axn,37.70
2024-03-07T07:20:00,axn,37.89
2024-03-07T07:21:00,axn,38.17
2024-03-07T07:22:00,axn,42.11
2024-03-07T07:23:00,axn,42.23
2024-03-07T07:24:00,axn,43.19
2024-03-07T07:25:00,axn,43.08
2024-03-07T07:26:00,axn,43.98
2024-03-07T07:27:00,axn,43.47
2024-03-07T07:28:00,axn,43.52
2024-03-07T07:29:00,axn,43.56
2024-03-07T07:30:00,axn,47.52
2024-03-07T07:31:00,axn,43.53
2024-03-07T07:32:00,axn,44.30
2024-03-07T07:33:00,axn,43.94
2024-03-07T07:34:00,axn,44.83
2024-03-07T07:35:00,axn,45.47
2024-03-07T07:36:00,axn,45.21
2024-03-07T07:37:00,axn,44.82
2024-03-07T07:38:00,axn,46.38
2024-03-07T07:39:00,axn,45.49
2024-03-07T07:40:00,axn,43.31
2024-03-07T07:41:00,axn,45.47
2024-03-07T07:42:00,axn,47.09
2024-03-07T07:43:00,axn,46.29
2024-03-07T07:44:00,axn,45.33
2024-03-07T07:45:00,axn,46.31
2024-03-07T07:46:00,axn,46.13
2024-03-07T07:47:00,axn,46.41
2024-03-07T07:48:00,axn,46.26
2024-03-07T07:49:00,axn,51.21
2024-03-07T07:50:00,axn,46.11
2024-03-07T07:51:00,axn,44.34
2024-03-07T07:52:00,axn,43.95
2024-03-07T07:53:00,axn,44.41
2024-03-07T07:54:00,axn,50.56
2024-03-07T07:55:00,axn,46.29
2024-03-07T07:56:00,axn,46.66
2024-03-07T07:57:00,axn,46.10
2024-03-07T07:58:00,axn,46.53
2024-03-07T07:59:00,axn,46.48
2024-03-07T08:00:00,axn,53.34
2024-03-07T08:01:00,axn,50.29
2024-03-07T08:02:00,axn,47.63
2024-03-07T08:03:00,axn,47.45
2024-03-07T08:04:00,axn,45.97
2024-03-07T08:05:00,axn,46.48
2024-03-07T08:06:00,axn,46.51
2024-03-07T08:07:00,axn,46.58
2024-03-07T08:08:00,axn,46.08
2024-03-07T08:09:00,axn,45.85
2024-03-07T08:10:00,axn,46.00
2024-03-07T08:11:00,axn,46.25
2024-03-07T08:12:00,axn,46.49
2024-03-07T08:13:00,axn,46.39
2024-03-07T08:14:00,axn,47.38
2024-03-07T08:15:00,axn,46.37
2024-03-07T08:16:00,axn,48.99
2024-03-07T08:17:00,axn,46.65
2024-03-07T08:18:00,axn,49.49
2024-03-07T08:19:00,axn,46.98
2024-03-07T08:20:00,axn,48.84
2024-03-07T08:21:00,axn,47.23
2024-03-07T08:22:00,axn,49.06
2024-03-07T08:23:00,axn,47.90
2024-03-07T08:24:00,axn,47.20
2024-03-07T08:25:00,axn,53.18
2024-03-07T08:26:00,axn,51.71
2024-03-07T08:27:00,axn,49.83
2024-03-07T08:28:00,axn,49.68
2024-03-07T08:29:00,axn,49.30
2024-03-07T08:30:00,axn,47.49
2024-03-07T08:31:00,axn,49.25
2024-03-07T08:32:00,axn,49.87
2024-03-07T08:33:00,axn,48.12
2024-03-07T08:34:00,axn,49.19
2024-03-07T08:35:00,axn,49.60
2024-03-07T08:36:00,axn,48.28
2024-03-07T08:37:00,axn,49.49
2024-03-07T08:38:00,axn,52.16
2024-03-07T08:39:00,axn,50.35
2024-03-07T08:40:00,axn,48.13
2024-03-07T08:41:00,axn,48.45
2024-03-07T08:42:00,axn,47.87
2024-03-07T08:43:00,axn,50.13
2024-03-07T08:44:00,axn,48.78
2024-03-07T08:45:00,axn,49.70
2024-03-07T08:46:00,axn,47.99
2024-03-07T08:47:00,axn,48.93
2024-03-07T08:48:00,axn,47.61
2024-03-07T08:49:00,axn,47.30
2024-03-07T08:50:00,axn,47.24
2024-03-07T08:51:00,axn,47.09
2024-03-07T08:52:00,axn,47.43
2024-03-07T08:53:00,axn,52.32
2024-03-07T08:54:00,axn,46.95
2024-03-07T08:55:00,axn,47.73
2024-03-07T08:56:00,axn,47.55
2024-03-07T08:57:00,axn,48.45
2024-03-07T08:58:00,axn,48.17
2024-03-07T08:59:00,axn,48.59
2024-03-07T09:00:00,axn,50.45
2024-03-07T09:01:00,axn,49.93
2024-03-07T09:02:00,axn,49.77
2024-03-07T09:03:00,axn,48.79
2024-03-07T09:04:00,axn,47.35
2024-03-07T09:05:00,axn,49.62
2024-03-07T09:06:00,axn,50.28
2024-03-07T09:07:00,axn,49.77
2024-03-07T09:08:00,axn,48.28
2024-03-07T09:09:00,axn,47.39
2024-03-07T09:10:00,axn,47.28
2024-03-07T09:11:00,axn,50.27
2024-03-07T09:12:00,axn,47.59
2024-03-07T09:13:00,axn,49.18
2024-03-07T09:14:00,axn,49.90
2024-03-07T09:15:00,axn,48.83
2024-03-07T09:16:00,axn,48.31
2024-03-07T09:17:00,axn,52.88
2024-03-07T09:18:00,axn,49.15
2024-03-07T09:19:00,axn,49.65
2024-03-07T09:20:00,axn,47.73
2024-03-07T09:21:00,axn,48.79
2024-03-07T09:22:00,axn,49.89
2024-03-07T09:23:00,axn,48.81
2024-03-07T09:24:00,axn,48.00
2024-03-07T09:25:00,axn,49.57
2024-03-07T09:26:00,axn,49.12
2024-03-07T09:27:00,axn,47.97
2024-03-07T09:28:00,axn,50.10
2024-03-07T09:29:00,axn,47.72
2024-03-07T09:30:00,axn,49.53
2024-03-07T09:31:00,axn,48.27
2024-03-07T09:32:00,axn,49.86
2024-03-07T09:33:00,axn,47.18
2024-03-07T09:34:00,axn,49.10
2024-03-07T09:35:00,axn,47.43
2024-03-07T09:36:00,axn,55.49
2024-03-07T09:37:00,axn,56.55
2024-03-07T09:38:00,axn,56.72
2024-03-07T09:39:00,axn,60.32
2024-03-07T09:40:00,axn,55.14
2024-03-07T09:41:00,axn,56.52
2024-03-07T09:42:00,axn,55.50
2024-03-07T09:43:00,axn,70.07
2024-03-07T09:44:00,axn,69.83
2024-03-07T09:45:00,axn,70.46
2024-03-07T09:46:00,axn,69.25
2024-03-07T09:47:00,axn,70.13
2024-03-07T09:48:00,axn,56.30
2024-03-07T09:49:00,axn,58.82
2024-03-07T09:50:00,axn,56.41
2024-03-07T09:51:00,axn,57.62
2024-03-07T09:52:00,axn,57.36
2024-03-07T09:53:00,axn,58.64
2024-03-07T09:54:00,axn,58.47
2024-03-07T09:55:00,axn,59.89
2024-03-07T09:56:00,axn,69.01
2024-03-07T09:57:00,axn,67.20
2024-03-07T09:58:00,axn,68.84
2024-03-07T09:59:00,axn,67.76
2024-03-07T10:00:00,axn,74.06
2024-03-07T10:01:00,axn,63.44
2024-03-07T10:02:00,axn,59.06
2024-03-07T10:03:00,axn,59.20
2024-03-07T10:04:00,axn,57.03
2024-03-07T10:05:00,axn,58.96
2024-03-07T10:06:00,axn,56.45
2024-03-07T10:07:00,axn,57.90
2024-03-07T10:08:00,axn,59.70
2024-03-07T10:09:00,axn,57.07
2024-03-07T10:10:00,axn,57.76
2024-03-07T10:11:00,axn,60.40
2024-03-07T10:12:00,axn,59.08
2024-03-07T10:13:00,axn,58.08
2024-03-07T10:14:00,axn,59.91
2024-03-07T10:15:00,axn,60.22
2024-03-07T10:16:00,axn,60.32
2024-03-07T10:17:00,axn,57.55
2024-03-07T10:18:00,axn,59.44
2024-03-07T10:19:00,axn,59.46
2024-03-07T10:20:00,axn,56.81
2024-03-07T10:21:00,axn,57.76
2024-03-07T10:22:00,axn,57.50
2024-03-07T10:23:00,axn,57.40
2024-03-07T10:24:00,axn,58.54
2024-03-07T10:25:00,axn,61.02
2024-03-07T10:26:00,axn,61.90
2024-03-07T10:27:00,axn,58.98
2024-03-07T10:28:00,axn,62.37
2024-03-07T10:29:00,axn,61.56
2024-03-07T10:30:00,axn,58.59
2024-03-07T10:31:00,axn,58.44
2024-03-07T10:32:00,axn,59.45
2024-03-07T10:33:00,axn,56.93
2024-03-07T10:34:00,axn,57.50
2024-03-07T10:35:00,axn,57.62
2024-03-07T10:36:00,axn,58.00
2024-03-07T10:37:00,axn,57.77
2024-03-07T10:38:00,axn,58.10
2024-03-07T10:39:00,axn,58.64
2024-03-07T10:40:00,axn,56.79
2024-03-07T10:41:00,axn,56.93
2024-03-07T10:42:00,axn,58.78
2024-03-07T10:43:00,axn,56.98
2024-03-07T10:44:00,axn,56.62
2024-03-07T10:45:00,axn,58.93
2024-03-07T10:46:00,axn,58.54
2024-03-07T10:47:00,axn,57.71
2024-03-07T10:48:00,axn,56.68
2024-03-07T10:49:00,axn,57.90
2024-03-07T10:50:00,axn,63.22
2024-03-07T10:51:00,axn,57.20
2024-03-07T10:52:00,axn,57.83
2024-03-07T10:53:00,axn,61.96
2024-03-07T10:54:00,axn,57.09
2024-03-07T10:55:00,axn,57.94
2024-03-07T10:56:00,axn,57.39
2024-03-07T10:57:00,axn,55.94
2024-03-07T10:58:00,axn,58.60
2024-03-07T10:59:00,axn,62.11
2024-03-07T11:00:00,axn,64.96
2024-03-07T11:01:00,axn,77.49
2024-03-07T11:02:00,axn,63.71
2024-03-07T11:03:00,axn,56.54
2024-03-07T11:04:00,axn,58.30
2024-03-07T11:05:00,axn,57.39
2024-03-07T11:06:00,axn,57.14
2024-03-07T11:07:00,axn,58.54
2024-03-07T11:08:00,axn,59.27
2024-03-07T11:09:00,axn,57.14
2024-03-07T11:10:00,axn,58.93
2024-03-07T11:11:00,axn,59.15
2024-03-07T11:12:00,axn,60.77
2024-03-07T11:13:00,axn,59.13
2024-03-07T11:14:00,axn,60.28
2024-03-07T11:15:00,axn,59.07
2024-03-07T11:16:00,axn,61.04
2024-03-07T11:17:00,axn,59.62
2024-03-07T11:18:00,axn,58.87
2024-03-07T11:19:00,axn,64.48
2024-03-07T11:20:00,axn,62.76
2024-03-07T11:21:00,axn,58.75
2024-03-07T11:22:00,axn,66.75
2024-03-07T11:23:00,axn,60.40
2024-03-07T11:24:00,axn,59.80
2024-03-07T11:25:00,axn,59.79
2024-03-07T11:26:00,axn,58.64
2024-03-07T11:27:00,axn,59.52
2024-03-07T11:28:00,axn,58.04
2024-03-07T11:29:00,axn,59.06
2024-03-07T11:30:00,axn,58.63
2024-03-07T11:31:00,axn,57.70
2024-03-07T11:32:00,axn,58.31
2024-03-07T11:33:00,axn,57.89
2024-03-07T11:34:00,axn,59.73
2024-03-07T11:35:00,axn,60.39
2024-03-07T11:36:00,axn,59.81
2024-03-07T11:37:00,axn,64.88
2024-03-07T11:38:00,axn,52.87
2024-03-07T11:39:00,axn,51.01
2024-03-07T11:40:00,axn,51.51
2024-03-07T11:41:00,axn,52.65
2024-03-07T11:42:00,axn,49.64
2024-03-07T11:43:00,axn,49.91
2024-03-07T11:44:00,axn,50.81
2024-03-07T11:45:00,axn,51.19
2024-03-07T11:46:00,axn,50.33
2024-03-07T11:47:00,axn,52.31
2024-03-07T11:48:00,axn,51.77
2024-03-07T11:49:00,axn,49.82
2024-03-07T11:50:00,axn,54.78
2024-03-07T11:51:00,axn,55.78
2024-03-07T11:52:00,axn,51.33
2024-03-07T11:53:00,axn,49.39
2024-03-07T11:54:00,axn,51.78
2024-03-07T11:55:00,axn,52.06
2024-03-07T11:56:00,axn,51.18
2024-03-07T11:57:00,axn,52.07
2024-03-07T11:58:00,axn,52.72
2024-03-07T11:59:00,axn,48.95
2024-03-07T12:00:00,axn,50.91
2024-03-07T12:01:00,axn,50.50
2024-03-07T12:02:00,axn,52.29
2024-03-07T12:03:00,axn,51.26
2024-03-07T12:04:00,axn,49.60
2024-03-07T12:05:00,axn,51.20
2024-03-07T12:06:00,axn,50.55
2024-03-07T12:07:00,axn,51.85
2024-03-07T12:08:00,axn,52.64
2024-03-07T12:09:00,axn,54.17
2024-03-07T12:10:00,axn,53.93
2024-03-07T12:11:00,axn,51.63
2024-03-07T12:12:00,axn,49.14
2024-03-07T12:13:00,axn,52.09
2024-03-07T12:14:00,axn,50.40
2024-03-07T12:15:00,axn,51.14
2024-03-07T12:16:00,axn,51.49
2024-03-07T12:17:00,axn,52.66
2024-03-07T12:18:00,axn,51.78
2024-03-07T12:19:00,axn,50.71
2024-03-07T12:20:00,axn,51.59
2024-03-07T12:21:00,axn,51.45
2024-03-07T12:22:00,axn,50.87
2024-03-07T12:23:00,axn,51.95
2024-03-07T12:24:00,axn,50.84
2024-03-07T12:25:00,axn,49.34
2024-03-07T12:26:00,axn,52.24
2024-03-07T12:27:00,axn,52.96
2024-03-07T12:28:00,axn,49.96
2024-03-07T12:29:00,axn,51.05
2024-03-07T12:30:00,axn,51.82
2024-03-07T12:31:00,axn,51.98
2024-03-07T12:32:00,axn,51.45
2024-03-07T12:33:00,axn,49.21
2024-03-07T12:34:00,axn,54.36
2024-03-07T12:35:00,axn,54.14
2024-03-07T12:36:00,axn,50.67
2024-03-07T12:37:00,axn,50.08
2024-03-07T12:38:00,axn,66.66
2024-03-07T12:39:00,axn,49.96
2024-03-07T12:40:00,axn,65.81
2024-03-07T12:41:00,axn,65.16
2024-03-07T12:42:00,axn,65.33
2024-03-07T12:43:00,axn,63.43
2024-03-07T12:44:00,axn,51.10
2024-03-07T12:45:00,axn,63.15
2024-03-07T12:46:00,axn,65.60
2024-03-07T12:47:00,axn,50.16
2024-03-07T12:48:00,axn,63.34
2024-03-07T12:49:00,axn,63.03
2024-03-07T12:50:00,axn,51.59
2024-03-07T12:51:00,axn,51.13
2024-03-07T12:52:00,axn,53.22
2024-03-07T12:53:00,axn,55.13
2024-03-07T12:54:00,axn,51.07
2024-03-07T12:55:00,axn,50.09
2024-03-07T12:56:00,axn,50.52
2024-03-07T12:57:00,axn,48.63
2024-03-07T12:58:00,axn,48.47
2024-03-07T12:59:00,axn,48.60
2024-03-07T13:00:00,axn,48.17
2024-03-07T13:01:00,axn,48.90
2024-03-07T13:02:00,axn,48.68
2024-03-07T13:03:00,axn,49.71
2024-03-07T13:04:00,axn,48.82
2024-03-07T13:05:00,axn,51.32
2024-03-07T13:06:00,axn,49.99
2024-03-07T13:07:00,axn,48.90
2024-03-07T13:08:00,axn,51.75
2024-03-07T13:09:00,axn,51.22
2024-03-07T13:10:00,axn,51.04
2024-03-07T13:11:00,axn,49.07
2024-03-07T13:12:00,axn,51.25
2024-03-07T13:13:00,axn,49.51
2024-03-07T13:14:00,axn,47.82
2024-03-07T13:15:00,axn,52.61
2024-03-07T13:16:00,axn,48.69
2024-03-07T13:17:00,axn,49.44
2024-03-07T13:18:00,axn,50.29